Temperature
18 17 17 17 16 16 16 16 16 15 14 13 12 12 12 12 12 12 12 12 12 12 11 11 10 10 9 8 8 7 7 7 7 7 8 9 8 9 9 9 9 9 9
16 16 16 15 15 15 15 15 15 14 13 13 12 12 12 11 12 12 12 12 11 11 11 10 9 9 8 8 7 7 7 7 6 6 6 6 7 8 7 7 7 7 7
17 16 15 15 14 14 14 14 14 13 13 13 12 12 11 12 12 12 12 11 11 11 10 9 9 8 8 7 6 6 6 6 6 5 4 3 3 3 5 5 5 5 5
16 15 15 14 14 14 13 13 13 13 12 12 12 12 13 12 12 12 11 11 10 10 9 9 8 8 7 6 6 6 5 5 5 5 4 3 2 2 2 2 3 3 3
16 15 14 14 14 13 13 13 13 12 12 12 13 13 13 12 12 11 11 10 10 9 9 8 8 7 6 6 5 5 5 5 4 4 3 3 2 1 0 -0 0 1 2
15 14 13 13 13 13 13 12 12 12 12 12 12 12 12 12 12 11 11 10 9 9 8 8 7 6 6 5 5 4 4 4 3 3 2 1 1 0 -0 -1 -1 -1 -1
14 13 13 13 13 12 12 12 12 12 12 12 12 12 12 12 11 11 10 9 9 8 8 7 6 6 5 4 4 4 4 3 3 2 2 1 1 -0 -1 -2 -2 -2 -2
13 13 13 13 13 12 12 12 12 12 12 12 12 12 11 11 10 10 9 8 8 8 7 6 6 5 4 4 3 3 3 3 2 2 1 1 0 -1 -2 -2 -3 -3 -3
12 13 13 13 13 12 12 12 12 12 12 12 12 12 11 10 10 9 8 8 7 7 6 6 5 4 4 3 3 3 2 2 2 1 0 -1 -1 -2 -2 -3 -3 -4 -4
11 12 12 12 12 12 12 11 12 12 12 12 12 11 10 10 9 8 8 7 7 6 6 5 4 4 3 3 2 2 1 1 1 -0 -1 -2 -3 -3 -3 -4 -5 -5 -5
11 12 12 12 12 12 11 11 11 12 11 11 11 10 10 9 8 7 7 6 6 5 5 4 4 3 2 2 1 1 0 0 -0 -1 -2 -3 -4 -5 -5 -5 -6 -6 -5
11 12 12 12 11 11 11 11 11 11 11 10 10 9 9 8 7 7 6 5 5 4 4 3 3 2 1 1 1 -0 -0 -1 -2 -3 -4 -5 -5 -5 -6 -6 -6 -6 -6
11 12 11 11 11 11 10 10 10 10 10 9 9 8 7 7 6 6 5 5 4 3 3 2 2 1 1 0 -0 -1 -1 -2 -3 -4 -5 -5 -6 -6 -7 -7 -6 -7 -7
11 12 11 11 11 11 10 9 9 9 9 8 8 7 6 6 5 5 4 4 3 3 2 2 1 1 0 -0 -1 -2 -2 -3 -4 -5 -5 -6 -7 -7 -7 -7 -7 -7 -7
11 11 11 11 11 10 9 9 8 8 8 7 7 6 5 5 4 4 3 3 2 2 1 1 1 0 -1 -1 -2 -2 -4 -4 -5 -5 -6 -7 -7 -7 -7 -7 -7 -7 -7
11 11 11 11 10 10 9 8 8 7 7 6 6 5 4 4 3 3 2 2 1 1 1 0 -0 -1 -1 -2 -2 -4 -5 -5 -6 -6 -7 -7 -7 -7 -8 -8 -7 -7 -7
11 11 12 11 10 9 9 8 7 6 6 5 4 4 3 3 2 2 1 1 1 0 0 -0 -1 -2 -2 -3 -4 -5 -6 -6 -7 -7 -8 -8 -8 -8 -8 -8 -8 -8 -8
11 11 11 11 9 9 8 7 6 5 5 4 3 3 2 2 1 1 0 0 -0 -0 -1 -1 -2 -2 -3 -4 -5 -6 -7 -7 -8 -8 -8 -8 -8 -8 -8 -8 -8 -8 -8
12 12 11 10 9 7 6 6 5 4 4 3 2 2 2 1 1 0 -0 -1 -1 -1 -1 -2 -3 -3 -4 -5 -6 -8 -8 -8 -8 -8 -8 -8 -8 -8 -8 -8 -8 -9 -9
11 10 10 8 7 6 5 5 4 3 2 2 2 1 1 0 -0 -1 -1 -1 -2 -2 -3 -3 -3 -4 -5 -6 -7 -8 -8 -8 -8 -8 -8 -8 -8 -8 -8 -9 -9 -9 -9
9 9 8 7 6 5 4 4 3 2 2 1 1 0 -0 -1 -1 -1 -2 -2 -3 -3 -3 -3 -4 -4 -6 -7 -8 -8 -8 -8 -8 -8 -8 -8 -9 -9 -9 -10 -10 -10 -10
7 6 6 5 4 3 3 3 2 1 1 1 0 -1 -1 -2 -2 -2 -2 -3 -3 -3 -3 -4 -4 -6 -7 -8 -8 -9 -8 -8 -8 -8 -9 -9 -9 -10 -10 -11 -11 -10 -10
6 5 5 4 3 2 2 2 1 1 0 -0 -1 -1 -2 -2 -3 -3 -3 -3 -3 -4 -4 -6 -7 -8 -8 -8 -8 -9 -9 -8 -8 -9 -9 -10 -10 -11 -11 -11 -11 -11 -11
5 4 4 3 2 1 1 0 0 -0 -1 -1 -2 -2 -3 -3 -3 -4 -4 -4 -4 -5 -6 -7 -8 -9 -9 -9 -9 -9 -9 -9 -9 -9 -10 -10 -11 -11 -11 -11 -11 -11 -12
4 3 3 2 1 1 0 -0 -1 -1 -2 -2 -3 -3 -3 -3 -4 -4 -5 -5 -5 -7 -8 -9 -9 -10 -10 -9 -9 -9 -9 -9 -9 -10 -10 -11 -12 -11 -11 -11 -11 -12 -12
3 2 1 1 0 -0 -1 -1 -1 -2 -2 -3 -3 -3 -4 -4 -4 -4 -4 -5 -6 -7 -8 -8 -9 -10 -10 -10 -9 -9 -9 -10 -11 -11 -12 -12 -12 -13 -12 -12 -12 -12 -12
Wind_Speed
8 7 7 8 7 7 8 9 14 15 15 13 11 9 6 5 5 6 11 12 12 12 9 5 5 5 5 5 5 4 4 3 6 5 6 6 3 4 11 8 7 7 8
8 8 8 7 6 8 9 11 14 14 13 10 7 6 5 5 5 5 8 11 12 11 9 6 5 6 5 7 7 5 3 3 5 4 4 5 6 8 11 8 8 9 8
15 12 10 8 8 8 10 12 13 12 12 12 11 9 8 6 4 5 5 7 10 11 10 8 5 6 6 5 5 4 4 3 4 5 5 5 4 9 5 8 7 11 7
11 10 11 10 10 9 9 12 13 13 13 13 12 13 8 6 4 4 5 5 9 10 10 9 7 5 5 4 4 4 3 4 4 3 3 1 4 4 7 6 10 8 9
17 16 14 13 11 9 10 11 12 12 10 11 11 10 7 5 5 6 7 7 6 8 8 8 6 4 4 4 5 5 5 4 3 3 3 3 3 4 6 11 9 11 9
13 12 10 12 10 8 9 10 12 9 10 11 11 11 11 9 9 7 6 5 4 4 5 5 4 4 4 4 5 5 6 5 4 3 3 3 4 6 6 9 13 13 9
18 17 16 15 13 12 11 10 12 10 11 12 11 11 11 10 10 8 7 5 3 2 2 3 3 3 3 4 4 5 6 5 5 5 4 4 5 5 6 10 14 14 11
18 18 17 17 16 14 12 11 12 11 11 12 11 10 11 9 7 7 7 5 4 3 1 2 2 4 5 5 5 5 5 5 6 7 6 5 6 5 5 8 12 16 14
21 19 17 15 15 14 12 12 13 12 11 12 12 11 10 10 8 8 6 5 3 2 2 3 3 4 5 5 6 5 7 7 6 7 6 5 5 5 7 8 8 11 15
18 16 16 14 13 11 10 10 11 11 10 11 10 9 10 9 9 8 7 5 3 2 3 4 5 6 6 7 7 6 8 8 7 6 6 6 6 7 8 8 8 8 12
19 17 15 13 12 12 11 11 10 11 10 10 10 10 9 8 8 7 6 4 3 2 3 4 6 7 8 8 8 8 9 8 8 7 7 7 8 9 10 9 9 9 9
17 16 14 12 13 12 11 10 10 10 9 9 10 9 8 8 7 6 5 4 3 2 4 5 6 7 8 8 8 9 10 9 9 8 7 8 10 11 10 10 11 11 11
15 13 13 13 13 12 10 10 10 10 9 9 10 9 8 7 6 5 4 3 3 4 5 6 7 8 8 9 9 9 9 9 8 7 7 8 10 11 11 12 12 10 9
17 15 13 12 12 12 11 10 10 10 10 10 9 8 7 6 5 4 3 3 4 5 6 7 7 8 8 9 9 8 9 9 8 7 7 8 9 12 13 13 11 11 13
16 16 16 13 13 12 11 10 10 9 10 10 9 7 6 5 4 4 3 4 4 5 6 7 8 8 8 10 13 11 9 9 8 8 8 9 14 20 19 16 14 14 14
17 16 15 14 13 13 12 11 10 9 10 9 8 7 6 5 4 3 3 4 6 6 6 7 8 9 9 18 22 19 12 9 9 9 9 11 14 18 24 27 28 26 22
17 17 16 14 13 13 13 12 10 10 9 9 8 6 5 5 4 4 4 5 5 6 7 7 8 9 10 19 22 24 14 10 10 10 11 12 13 17 14 22 27 25 27
13 13 13 12 10 10 11 11 10 10 9 8 7 6 5 5 4 4 4 4 4 5 6 7 8 8 11 18 22 24 11 9 9 11 11 11 12 13 20 18 16 14 13
11 12 12 12 12 12 12 12 10 9 9 7 6 5 5 4 3 3 4 3 4 5 5 6 8 8 9 16 21 19 8 9 10 9 9 12 14 23 31 21 15 13 13
14 15 14 15 14 11 11 12 10 9 7 7 6 5 4 4 3 3 4 3 4 6 7 7 8 9 9 15 21 20 9 9 10 10 10 18 23 28 29 19 15 14 17
15 15 14 13 11 10 11 11 9 7 7 6 5 4 4 4 4 4 4 4 6 6 7 7 7 8 9 12 19 20 11 10 11 11 10 12 24 27 30 25 15 19 19
12 13 13 11 8 9 12 10 8 7 6 6 5 5 5 5 5 6 6 6 6 6 7 7 7 6 7 12 17 21 20 18 12 10 10 12 24 28 26 21 22 27 21
11 10 12 11 8 8 10 10 7 6 6 6 5 5 5 5 5 5 6 5 6 6 6 7 7 7 6 8 17 20 21 22 15 11 16 20 24 22 18 22 25 20 12
10 10 11 10 8 7 8 8 7 6 6 6 5 4 4 5 5 4 4 5 5 6 7 8 8 8 7 7 9 9 11 14 12 12 12 19 20 17 17 17 15 11 12
8 9 10 10 8 8 7 7 6 7 6 5 4 3 3 3 4 4 4 5 6 8 9 7 7 8 9 12 19 16 13 12 16 14 8 9 11 11 12 12 12 12 13
8 8 9 9 8 8 7 6 6 6 5 3 2 2 2 3 4 5 6 9 12 16 16 16 13 11 15 22 23 23 25 25 23 13 9 10 11 12 13 14 14 13 13
Wind_Direction
196 191 164 151 140 137 139 138 130 129 126 128 124 119 113 97 83 82 88 87 84 78 73 59 47 43 50 36 23 357 343 333 340 329 314 315 321 16 356 351 345 353 347
187 180 161 151 150 140 132 133 132 133 133 131 123 123 120 101 91 81 79 81 79 75 71 66 56 45 39 29 21 19 348 330 360 349 336 338 332 348 336 335 344 347 350
183 176 162 158 146 142 139 138 139 136 132 127 120 111 105 92 80 78 73 70 77 73 69 66 61 50 45 29 10 8 29 346 337 14 43 353 314 319 316 324 334 337 336
172 170 159 157 153 153 142 139 141 138 139 138 138 141 138 135 142 126 104 81 75 73 69 65 60 52 42 28 2 8 9 12 0 358 35 263 270 302 313 318 320 319 318
174 172 166 154 146 145 141 142 140 138 137 133 135 132 122 122 120 112 106 88 71 69 67 65 60 51 37 19 9 7 9 18 5 350 326 321 277 250 278 301 309 312 307
163 158 151 140 133 132 130 135 131 130 132 131 133 135 134 130 126 131 121 109 85 63 55 60 55 41 21 6 358 357 2 3 357 337 320 303 300 307 298 300 305 303 296
158 159 157 150 144 141 136 135 130 129 130 127 129 131 131 130 134 141 137 130 111 80 41 51 37 21 3 358 354 352 351 348 341 320 302 280 271 282 292 305 308 305 304
162 164 161 153 148 143 136 132 129 127 125 123 122 121 120 121 123 127 125 128 137 153 128 66 30 11 4 355 350 341 332 329 320 310 304 298 295 291 290 301 305 306 304
165 165 158 154 149 145 141 138 133 127 123 123 121 118 117 116 117 118 117 121 129 117 75 39 9 357 353 343 340 333 322 317 310 307 304 305 295 295 296 294 289 295 305
161 160 158 155 149 141 136 132 132 130 127 122 119 117 114 114 117 119 119 121 110 70 39 4 352 343 337 335 335 324 314 311 305 307 312 302 296 307 306 299 292 285 289
163 161 160 156 142 135 137 135 131 126 122 119 116 114 113 114 116 118 122 117 102 63 12 345 341 336 333 328 325 315 305 299 297 298 303 301 301 309 306 299 295 289 285
159 159 155 146 142 143 140 137 131 126 125 121 115 112 115 118 118 120 119 111 83 23 352 340 334 330 324 319 313 307 307 302 299 299 303 297 307 309 304 300 295 290 285
152 153 152 152 148 145 138 134 131 128 125 120 116 115 121 124 127 128 117 82 40 359 344 339 335 328 321 315 308 300 295 294 292 290 286 289 307 308 300 294 292 294 296
158 158 155 149 145 143 140 136 129 128 126 122 120 127 134 134 134 122 89 50 17 352 344 342 334 326 319 310 304 300 299 298 288 277 277 284 293 296 297 298 305 311 304
163 165 161 154 148 141 136 134 132 129 127 126 128 135 134 131 118 94 60 30 11 358 351 347 336 329 327 326 329 325 315 301 291 283 276 276 294 308 307 309 312 307 302
167 164 157 151 148 143 140 136 134 132 131 130 131 133 130 118 103 77 43 24 11 359 352 344 332 326 331 336 339 336 327 318 302 290 284 286 294 300 309 310 306 304 305
165 160 156 150 144 143 144 139 136 131 125 123 128 132 125 111 91 67 39 17 0 349 339 333 327 318 322 337 341 340 340 329 319 308 301 304 309 306 297 295 298 301 304
145 140 133 127 123 119 121 120 122 123 123 125 128 126 114 100 76 52 28 354 344 339 326 316 313 311 323 338 343 341 343 324 311 304 299 294 293 294 301 304 310 312 308
113 117 120 122 119 120 124 122 121 119 118 121 120 114 109 98 67 31 2 345 333 322 310 304 307 312 318 334 338 335 326 316 308 301 296 301 305 308 315 325 324 317 308
100 106 109 113 116 120 123 121 120 117 118 120 115 108 102 89 52 14 353 332 318 306 307 310 313 317 317 323 332 331 325 311 306 303 302 308 314 321 330 333 331 320 312
100 105 108 113 120 122 118 116 117 119 123 117 111 97 75 56 42 16 351 330 324 318 316 311 308 308 310 313 324 328 327 315 312 313 312 313 324 332 334 334 326 315 324
102 105 109 111 114 117 117 117 119 128 123 112 97 76 52 39 33 11 347 334 325 322 316 314 315 308 302 307 319 325 324 322 319 317 317 326 331 334 334 331 326 329 333
108 108 114 113 107 109 118 123 136 132 115 98 79 56 41 39 25 4 336 326 327 326 325 327 325 316 304 293 305 316 323 329 330 324 332 333 333 335 332 327 330 332 325
116 117 113 112 111 112 116 126 133 123 110 95 74 52 30 14 356 337 324 324 325 327 327 326 318 311 308 300 298 307 315 321 326 324 337 335 333 331 329 327 325 323 320
122 125 127 126 128 126 119 119 118 114 105 93 68 33 4 338 332 336 330 330 326 325 328 319 307 311 311 313 325 325 324 330 331 339 339 331 329 327 326 326 324 323 322
128 126 126 130 133 128 121 115 109 109 107 92 47 341 342 339 336 329 332 344 340 335 333 332 327 318 316 321 323 327 334 336 336 337 328 325 324 323 323 321 321 321 321
Height
1458 1460 1461 1461 1463 1465 1468 1470 1472 1474 1476 1480 1484 1487 1490 1493 1495 1498 1500 1500 1500 1501 1500 1499 1497 1494 1490 1486 1483 1480 1478 1474 1469 1464 1461 1460 1459 1456 1455 1454 1452 1450 1448
1454 1456 1457 1458 1460 1462 1464 1466 1469 1472 1476 1479 1482 1487 1490 1492 1495 1498 1498 1499 1499 1499 1498 1497 1495 1492 1489 1486 1482 1478 1475 1472 1468 1463 1459 1456 1455 1454 1453 1449 1447 1444 1442
1448 1449 1452 1455 1458 1460 1463 1466 1469 1473 1477 1479 1482 1486 1489 1492 1494 1496 1497 1498 1498 1497 1496 1495 1493 1490 1488 1484 1481 1477 1473 1470 1468 1465 1463 1461 1456 1448 1445 1443 1441 1439 1435
1444 1447 1448 1452 1456 1459 1463 1467 1470 1473 1476 1478 1481 1484 1487 1490 1493 1495 1495 1496 1496 1495 1494 1493 1491 1488 1485 1482 1479 1476 1472 1469 1466 1464 1463 1462 1458 1452 1441 1436 1435 1432 1429
1438 1443 1445 1449 1454 1459 1463 1467 1469 1472 1476 1478 1481 1485 1488 1490 1492 1493 1494 1494 1494 1493 1492 1491 1488 1486 1483 1481 1478 1475 1471 1467 1464 1462 1459 1456 1453 1449 1445 1433 1428 1424 1422
1435 1441 1446 1448 1452 1458 1463 1467 1469 1472 1475 1478 1481 1485 1487 1489 1490 1491 1492 1493 1492 1492 1490 1488 1486 1484 1481 1478 1475 1472 1469 1465 1462 1459 1456 1453 1449 1444 1439 1430 1422 1417 1413
1430 1437 1442 1445 1449 1456 1461 1466 1468 1470 1473 1477 1480 1483 1485 1487 1489 1490 1490 1491 1491 1490 1488 1486 1484 1481 1477 1474 1472 1469 1465 1462 1459 1455 1451 1448 1444 1440 1435 1427 1417 1409 1405
1427 1434 1438 1442 1447 1453 1459 1464 1467 1469 1472 1475 1478 1481 1483 1485 1487 1488 1488 1488 1488 1487 1485 1483 1481 1478 1474 1471 1468 1465 1462 1458 1455 1451 1446 1442 1439 1435 1430 1425 1416 1403 1395
1422 1430 1435 1441 1446 1453 1458 1462 1466 1468 1471 1474 1476 1479 1481 1483 1485 1486 1486 1487 1486 1485 1483 1480 1478 1475 1471 1468 1464 1461 1457 1454 1450 1445 1441 1437 1433 1428 1423 1418 1413 1407 1394
1421 1429 1435 1441 1447 1452 1457 1462 1467 1468 1470 1473 1476 1478 1480 1481 1482 1483 1484 1484 1483 1482 1480 1477 1474 1471 1467 1463 1460 1456 1453 1449 1445 1440 1436 1431 1426 1421 1415 1410 1406 1402 1396
1419 1427 1435 1441 1446 1451 1456 1461 1465 1467 1470 1472 1474 1476 1478 1479 1480 1481 1481 1481 1479 1478 1476 1474 1470 1467 1463 1460 1456 1451 1447 1443 1439 1435 1430 1425 1420 1414 1408 1403 1399 1396 1392
1418 1427 1434 1439 1445 1450 1455 1460 1463 1466 1469 1471 1473 1474 1476 1477 1478 1479 1478 1478 1476 1475 1473 1470 1466 1463 1459 1455 1451 1446 1442 1438 1433 1428 1424 1419 1414 1409 1403 1398 1394 1390 1386
1420 1427 1434 1439 1444 1449 1454 1458 1462 1464 1467 1469 1471 1473 1474 1475 1476 1476 1476 1475 1473 1471 1468 1466 1462 1459 1454 1450 1446 1441 1437 1432 1427 1423 1418 1414 1408 1402 1398 1394 1389 1384 1379
1419 1426 1432 1437 1443 1448 1453 1457 1460 1463 1465 1468 1470 1472 1473 1474 1474 1474 1473 1471 1469 1467 1465 1462 1458 1454 1450 1445 1440 1436 1431 1427 1422 1418 1413 1408 1403 1398 1393 1389 1384 1379 1373
1418 1424 1429 1435 1442 1447 1452 1456 1459 1462 1464 1466 1468 1470 1471 1472 1472 1471 1470 1468 1466 1464 1461 1458 1454 1450 1445 1441 1436 1431 1426 1421 1416 1412 1408 1404 1399 1394 1390 1385 1379 1374 1366
1416 1422 1428 1434 1440 1445 1449 1454 1458 1460 1463 1465 1467 1468 1469 1469 1469 1468 1467 1465 1463 1460 1458 1453 1449 1445 1440 1436 1431 1426 1420 1415 1410 1406 1402 1397 1392 1388 1383 1379 1373 1368 1361
1413 1420 1426 1433 1439 1444 1450 1453 1456 1459 1461 1463 1465 1466 1467 1467 1467 1465 1464 1462 1459 1457 1453 1449 1444 1440 1435 1430 1425 1419 1414 1409 1405 1400 1395 1390 1386 1381 1375 1369 1364 1359 1354
1413 1420 1427 1434 1441 1445 1450 1453 1456 1458 1460 1462 1463 1465 1465 1465 1464 1462 1461 1459 1456 1453 1449 1445 1440 1435 1430 1424 1418 1413 1408 1403 1399 1394 1390 1385 1379 1373 1368 1362 1356 1349 1344
1414 1421 1428 1435 1440 1445 1449 1452 1454 1457 1459 1460 1462 1462 1462 1462 1461 1460 1458 1455 1452 1449 1445 1440 1435 1430 1424 1419 1414 1408 1403 1399 1394 1390 1385 1380 1375 1368 1363 1356 1348 1341 1335
1417 1424 1431 1436 1441 1445 1448 1451 1453 1456 1457 1459 1460 1460 1460 1459 1458 1457 1455 1451 1448 1444 1440 1436 1431 1425 1420 1414 1410 1406 1401 1395 1390 1384 1380 1375 1370 1364 1357 1350 1343 1334 1328
1422 1427 1432 1437 1441 1444 1447 1450 1452 1454 1456 1457 1458 1458 1458 1457 1456 1454 1451 1448 1444 1440 1436 1431 1426 1421 1416 1411 1407 1403 1399 1392 1385 1379 1373 1368 1363 1358 1352 1345 1337 1330 1324
1424 1429 1433 1437 1441 1444 1447 1449 1452 1453 1455 1456 1456 1456 1456 1455 1453 1451 1448 1444 1440 1435 1429 1424 1420 1416 1411 1407 1403 1399 1395 1389 1383 1376 1369 1363 1358 1352 1345 1338 1332 1326 1319
1426 1431 1434 1437 1441 1445 1447 1449 1451 1453 1454 1454 1454 1454 1453 1451 1449 1446 1443 1439 1434 1429 1424 1419 1415 1410 1406 1402 1398 1394 1390 1385 1379 1372 1365 1358 1353 1346 1339 1332 1327 1321 1313
1429 1433 1436 1438 1441 1444 1447 1449 1450 1451 1452 1452 1452 1451 1450 1448 1446 1442 1438 1434 1429 1424 1420 1415 1411 1406 1402 1398 1394 1389 1385 1379 1372 1366 1359 1353 1347 1341 1335 1328 1322 1316 1311
1430 1434 1436 1438 1440 1443 1445 1447 1449 1450 1450 1450 1450 1448 1447 1444 1442 1439 1435 1431 1427 1423 1419 1413 1408 1403 1398 1394 1391 1387 1380 1374 1368 1361 1354 1348 1342 1335 1330 1324 1319 1313 1307
1431 1433 1436 1438 1440 1442 1444 1446 1447 1448 1448 1448 1447 1445 1443 1441 1438 1435 1432 1429 1425 1421 1415 1410 1406 1400 1396 1391 1387 1382 1376 1370 1364 1357 1351 1345 1339 1334 1328 1321 1315 1309 1303